Hourly Weather Roundup
Issued by NWS Central Illinois

Home | Current Version | Previous Version | Graphics & Text | Print | Product List | Glossary On
Versions: 1 2 3 4 5 6 7 8 9 10 11 12 13 14 15 16 17 18 19 20 21 22 23 24 25 26 27 28 29 30 31 32 33 34 35 36 37 38 39 40 41 42 43 44 45 46 47 48 49 50
000
NZUS43 KILX 230110
HWRILX

Area Weather Roundup
National Weather Service Lincoln IL
800 PM CDT MON MAY 22 2017

NOTE:  "FAIR" indicates few or no clouds below 12,000 feet, with
       no sigificant weather and/or obstructions to visibility.


CITY           SKY/WX    TMP DP  RH WIND       PRES   REMARKS
Bloomington    LGT RAIN  59  54  83 W10       30.00S
Champaign      CLOUDY    67  47  48 SW6       29.97F
Danville       CLOUDY    66  47  49 SW6       29.96F
Decatur        CLOUDY    63  55  75 N13       29.98S
Effingham      PTCLDY    65  56  72 CALM      29.98S
Flora          CLOUDY    71  56  59 CALM      29.97S
Galesburg      CLOUDY    59  56  88 S12       29.91S
Jacksonville   LGT RAIN  59  58  97 E7        29.96F
Lacon          CLOUDY    59  56  91 S14G21    29.91S
Lawrenceville  CLOUDY    70  44  39 S6        29.98S
Litchfield     CLOUDY    66  56  68 E3        29.95F
$$


CITY           SKY/WX    TMP DP  RH WIND       PRES   REMARKS
Lincoln        RAIN      60  59  97 CALM      29.99S
Macomb         CLOUDY    59  57  91 SW6       29.95S
Mattoon        CLOUDY    63  51  65 CALM      29.96F
Mt Carmel AP   CLOUDY    70  42  35 CALM      29.98S
Olney-Noble AP CLOUDY    68  51  53 CALM      29.98S
Paris AP       CLEAR     66  48  52 S3        29.98F
Peoria         CLOUDY    58  58 100 S10       29.94F
Pontiac        LGT RAIN  61  56  84 SW9       29.97F
Rantoul        CLOUDY    67  53  61 NW12      29.98F
Robinson       PTCLDY    69  46  43 CALM      29.98F
Springfield    LGT RAIN  61  59  93 N5        29.99S
Taylorville    CLOUDY    62  56  80 N12       29.97S
$$

...REGIONAL REPORTS...


CITY           SKY/WX    TMP DP  RH WIND       PRES   REMARKS
Chicago O`Hare CLOUDY    65  53  65 S18G24    29.90S
Kankakee       CLOUDY    64  52  66 SW15      29.97S
Moline         CLOUDY    62  54  74 S13       29.87S
Mount Sterling CLOUDY    58  57  97 S6        29.95F
Mount Vernon     N/A     66  56  70 CALM      29.97S
Pittsfield     MOCLDY    61  59  94 E3        29.96F
Quincy         LGT RAIN  60  58  92 SW8       29.96R
Rockford       CLOUDY    64  53  67 SW12      29.89S
$$


CITY           SKY/WX    TMP DP  RH WIND       PRES   REMARKS
Burlington     CLOUDY    60  58  92 SW10      29.91S
Cedar Rapids   MOCLDY    62  58  86 S12       29.82S
Des Moines     CLOUDY    66  53  63 SW13      29.85R
Kirksville     LGT RAIN  57  55  93 CALM      29.95F
Ottumwa        CLOUDY    62  56  80 SW14      29.87S
St Louis       CLOUDY    75  47  36 SW3       29.95R
$$


CITY           SKY/WX    TMP DP  RH WIND       PRES   REMARKS
Terre Haute    CLOUDY    66  44  45 CALM      29.98S
Evansville     CLOUDY    68  48  48 E3        29.98S
Indianapolis   PTCLDY    65  46  50 SW6       29.99F
Lafayette      CLOUDY    67  47  48 S5        29.98S
Madison        CLOUDY    63  54  72 S8        29.83S
Milwaukee      MOCLDY    61  52  72 CALM      29.85F
$$






USA.gov is the U.S. government's official web portal to all federal, state and local government web resources and services.